TimeCDT,TemperatureF,Dew PointF,Humidity,Sea Level PressureIn,VisibilityMPH,Wind Direction,Wind SpeedMPH,Gust SpeedMPH,PrecipitationIn,Events,Conditions,WindDirDegrees,DateUTC
12:15 AM,42.3,41.5,97,30.08,10.0,Calm,Calm,-,N/A,,Clear,0,2013-09-23 05:15:00
12:35 AM,42.8,42.3,98,30.08,10.0,Calm,Calm,-,N/A,,Clear,0,2013-09-23 05:35:00
12:55 AM,41.5,40.8,97,30.08,10.0,NNE,3.5,-,N/A,,Clear,30,2013-09-23 05:55:00
1:15 AM,40.6,40.1,98,30.08,10.0,NE,3.5,-,N/A,,Clear,40,2013-09-23 06:15:00
1:35 AM,40.1,39.7,99,30.08,10.0,NE,3.5,-,N/A,,Clear,40,2013-09-23 06:35:00
1:55 AM,40.6,40.1,98,30.08,10.0,NNE,3.5,-,N/A,,Clear,20,2013-09-23 06:55:00
2:15 AM,40.6,40.1,98,30.08,10.0,Calm,Calm,-,N/A,,Clear,0,2013-09-23 07:15:00
2:35 AM,40.1,39.6,98,30.08,7.0,Calm,Calm,-,N/A,,Clear,0,2013-09-23 07:35:00
2:55 AM,40.1,39.6,98,30.08,4.0,Calm,Calm,-,N/A,,Clear,0,2013-09-23 07:55:00
3:15 AM,39.7,39.2,98,30.08,5.0,Calm,Calm,-,N/A,,Clear,0,2013-09-23 08:15:00
3:35 AM,39.4,38.8,98,30.08,3.0,Calm,Calm,-,N/A,,Clear,0,2013-09-23 08:35:00
3:55 AM,38.8,38.3,98,30.08,7.0,Calm,Calm,-,N/A,,Clear,0,2013-09-23 08:55:00
4:15 AM,38.8,38.3,98,30.08,2.0,Calm,Calm,-,N/A,,Clear,0,2013-09-23 09:15:00
4:35 AM,38.8,38.5,99,30.08,5.0,Calm,Calm,-,N/A,,Clear,0,2013-09-23 09:35:00
4:55 AM,38.7,38.3,99,30.08,10.0,Calm,Calm,-,N/A,,Clear,0,2013-09-23 09:55:00
5:15 AM,38.5,38.1,99,30.09,10.0,Calm,Calm,-,N/A,,Clear,0,2013-09-23 10:15:00
5:35 AM,38.5,38.1,99,30.09,5.0,NNE,3.5,-,N/A,,Clear,30,2013-09-23 10:35:00
5:55 AM,38.5,38.1,99,30.10,5.0,Calm,Calm,-,N/A,,Clear,0,2013-09-23 10:55:00
6:15 AM,38.5,38.1,99,30.10,7.0,Calm,Calm,-,N/A,,Clear,0,2013-09-23 11:15:00
6:35 AM,38.5,38.1,99,30.11,3.0,Calm,Calm,-,N/A,,Clear,0,2013-09-23 11:35:00
6:55 AM,39.0,38.5,98,30.12,7.0,Calm,Calm,-,N/A,,Clear,0,2013-09-23 11:55:00
7:15 AM,38.8,38.5,99,30.12,7.0,NNE,3.5,-,N/A,,Clear,30,2013-09-23 12:15:00
7:35 AM,40.1,39.6,98,30.12,10.0,ENE,4.6,-,N/A,,Clear,70,2013-09-23 12:35:00
7:55 AM,42.6,41.9,97,30.12,10.0,East,3.5,-,N/A,,Clear,80,2013-09-23 12:55:00
8:15 AM,45.1,44.4,97,30.12,10.0,East,4.6,-,N/A,,Clear,90,2013-09-23 13:15:00
8:35 AM,47.5,45.7,93,30.12,10.0,ESE,5.8,-,N/A,,Clear,110,2013-09-23 13:35:00
8:55 AM,49.8,46.4,88,30.12,10.0,ESE,6.9,-,N/A,,Clear,110,2013-09-23 13:55:00
9:15 AM,52.3,46.9,82,30.13,10.0,SE,6.9,-,N/A,,Clear,140,2013-09-23 14:15:00
9:35 AM,54.5,47.1,76,30.13,10.0,SE,6.9,-,N/A,,Clear,130,2013-09-23 14:35:00
9:55 AM,56.5,47.5,72,30.13,10.0,ESE,6.9,-,N/A,,Clear,110,2013-09-23 14:55:00
10:15 AM,58.1,47.3,67,30.13,10.0,SSE,9.2,-,N/A,,Clear,150,2013-09-23 15:15:00
10:35 AM,59.7,46.9,63,30.12,10.0,ESE,8.1,-,N/A,,Clear,120,2013-09-23 15:35:00
10:55 AM,61.2,46.8,59,30.12,10.0,SSE,9.2,-,N/A,,Clear,150,2013-09-23 15:55:00
11:15 AM,61.7,46.4,57,30.12,10.0,South,9.2,-,N/A,,Clear,180,2013-09-23 16:15:00
11:35 AM,62.6,46.6,56,30.12,10.0,SE,4.6,-,N/A,,Clear,140,2013-09-23 16:35:00
11:55 AM,63.9,46.9,54,30.12,10.0,East,9.2,-,N/A,,Clear,100,2013-09-23 16:55:00
12:15 PM,64.6,46.0,51,30.12,10.0,SSE,6.9,-,N/A,,Clear,160,2013-09-23 17:15:00
12:35 PM,65.1,45.3,49,30.11,10.0,SE,6.9,-,N/A,,Clear,130,2013-09-23 17:35:00
12:55 PM,66.0,45.7,48,30.10,10.0,SSE,5.8,-,N/A,,Clear,160,2013-09-23 17:55:00
1:15 PM,66.6,44.2,44,30.10,10.0,ESE,6.9,-,N/A,,Clear,120,2013-09-23 18:15:00
1:35 PM,67.3,43.7,42,30.09,10.0,SSE,8.1,-,N/A,,Clear,150,2013-09-23 18:35:00
1:55 PM,67.6,43.7,42,30.09,10.0,South,6.9,-,N/A,,Clear,180,2013-09-23 18:55:00
2:15 PM,67.6,43.9,42,30.08,10.0,South,8.1,-,N/A,,Clear,180,2013-09-23 19:15:00
2:35 PM,68.5,45.0,43,30.07,10.0,East,5.8,-,N/A,,Clear,100,2013-09-23 19:35:00
2:55 PM,68.7,45.0,42,30.07,10.0,East,9.2,-,N/A,,Clear,100,2013-09-23 19:55:00
3:15 PM,68.7,45.0,42,30.07,10.0,SE,6.9,-,N/A,,Clear,130,2013-09-23 20:15:00
3:35 PM,68.9,44.6,42,30.06,10.0,ESE,5.8,-,N/A,,Clear,120,2013-09-23 20:35:00
3:55 PM,69.3,43.5,39,30.06,10.0,SE,9.2,-,N/A,,Clear,140,2013-09-23 20:55:00
4:15 PM,69.1,43.2,39,30.05,10.0,SE,8.1,-,N/A,,Clear,130,2013-09-23 21:15:00
4:35 PM,69.1,43.2,39,30.05,10.0,East,5.8,-,N/A,,Clear,100,2013-09-23 21:35:00
4:55 PM,68.7,43.5,40,30.05,10.0,SE,9.2,-,N/A,,Clear,130,2013-09-23 21:55:00
5:15 PM,68.4,43.5,41,30.05,10.0,SE,8.1,-,N/A,,Clear,140,2013-09-23 22:15:00
5:35 PM,68.0,43.7,41,30.05,10.0,ESE,6.9,-,N/A,,Clear,120,2013-09-23 22:35:00
5:55 PM,67.3,44.4,44,30.05,10.0,ESE,6.9,-,N/A,,Clear,110,2013-09-23 22:55:00
6:15 PM,66.0,44.4,46,30.05,10.0,ESE,4.6,-,N/A,,Clear,120,2013-09-23 23:15:00
6:35 PM,63.5,45.3,52,30.06,10.0,ESE,3.5,-,N/A,,Clear,120,2013-09-23 23:35:00
6:55 PM,60.6,45.9,58,30.06,10.0,East,3.5,-,N/A,,Clear,100,2013-09-23 23:55:00
7:15 PM,57.6,46.6,67,30.06,10.0,East,5.8,-,N/A,,Clear,90,2013-09-24 00:15:00
7:35 PM,55.9,46.6,71,30.07,10.0,East,4.6,-,N/A,,Clear,90,2013-09-24 00:35:00
7:55 PM,54.7,46.9,75,30.07,10.0,East,6.9,-,N/A,,Clear,100,2013-09-24 00:55:00
8:15 PM,54.7,46.9,75,30.07,10.0,East,5.8,-,N/A,,Clear,100,2013-09-24 01:15:00
8:35 PM,54.0,47.1,78,30.07,10.0,East,4.6,-,N/A,,Clear,100,2013-09-24 01:35:00
8:55 PM,53.1,48.2,84,30.07,10.0,East,5.8,-,N/A,,Clear,100,2013-09-24 01:55:00
9:15 PM,52.7,48.2,85,30.07,10.0,East,6.9,-,N/A,,Clear,100,2013-09-24 02:15:00
9:35 PM,52.9,48.2,84,30.07,10.0,ESE,8.1,-,N/A,,Clear,110,2013-09-24 02:35:00
9:55 PM,52.7,48.0,84,30.07,10.0,ESE,8.1,-,N/A,,Clear,110,2013-09-24 02:55:00
10:15 PM,52.9,47.5,82,30.08,10.0,ESE,8.1,-,N/A,,Clear,110,2013-09-24 03:15:00
10:35 PM,52.5,47.3,82,30.08,10.0,ESE,5.8,-,N/A,,Clear,110,2013-09-24 03:35:00
10:55 PM,52.0,46.9,83,30.08,10.0,ESE,8.1,-,N/A,,Clear,110,2013-09-24 03:55:00
11:15 PM,52.2,46.8,82,30.07,10.0,ESE,8.1,-,N/A,,Clear,110,2013-09-24 04:15:00
11:35 PM,51.6,46.6,83,30.08,10.0,ESE,6.9,-,N/A,,Clear,120,2013-09-24 04:35:00
11:55 PM,51.1,46.4,84,30.08,10.0,ESE,5.8,-,N/A,,Clear,120,2013-09-24 04:55:00